1 AAAAAU 00 0 0 BBBBB.BBBBBBBB .CCCCCCCC 00000-0 00000-0 0 DDDZ
2 AAAAA EEE.EEEE FFF.FFFF GGGGGGG HHH.HHHH III.IIII JJ.JJJJJJJJKKKKKZ
KEY: A-CATALOGNUM B-EPOCHTIME C-DECAY D-ELSETNUM E-INCLINATION F-RAAN
G-ECCENTRICITY H-ARGPERIGEE I-MNANOM J-MNMOTION K-ORBITNUM Z-CHECKSUM
TO ALL RADIO AMATEURS BT
AO-07
1 07530U 74089B 08038.65043768 -.00000027 00000-0 10000-3 0 985
2 07530 101.4849 074.4364 0012079 156.5756 203.5864 12.53573358520621
AO-10
1 14129U 83058B 08038.61210448 -.00000064 00000-0 10000-3 0 4660
2 14129 025.9390 231.6094 6032615 096.7648 331.0044 02.05871726185417
UO-11
1 14781U 84021B 08037.85743948 .00000227 00000-0 37559-4 0 05914
2 14781 098.1708 069.8220 0009785 131.7073 228.5002 14.79615918284435
RS-15
1 23439U 94085A 08037.92731509 -.00000039 00000-0 10000-3 0 01372
2 23439 064.8209 347.3066 0151216 147.7584 213.2690 11.27551600540160
FO-29
1 24278U 96046B 08037.92977031 -.00000094 00000-0 -59559-4 0 07095
2 24278 098.5824 331.4049 0350428 195.1916 163.8487 13.52934335566641
SO-33
1 25509U 98061B 08037.91954510 .00000075 00000-0 22220-5 0 01275
2 25509 031.4340 338.5655 0355301 319.4670 038.0047 14.28192201484839
AO-40
1 26609U 00072B 08038.23039156 -.00000378 00000-0 10000-3 0 40
2 26609 007.3869 098.6888 7927499 049.4989 356.0125 01.25584045 33399
VO-52
1 28650U 05017B 08037.90025221 .00000483 00000-0 68069-4 0 08518
2 28650 097.8053 108.0281 0026610 206.9727 153.0145 14.81419141149167
PO-63
1 29712U 07001D 08038.74801525 .00000674 00000-0 95795-4 0 1684
2 29712 097.8925 099.3009 0015298 085.2956 275.0010 14.80014202 58171
AO-16
1 20439U 90005D 08037.48110236 .00000008 00000-0 18173-4 0 02462
2 20439 098.2166 024.3646 0010301 205.4698 154.5991 14.31783510942075
LO-19
1 20442U 90005G 08037.89965398 -.00000038 00000-0 10642-5 0 01702
2 20442 098.1927 033.6649 0011377 202.6257 157.4408 14.32022412942289
AO-27
1 22825U 93061C 08037.51632382 -.00000106 00000-0 -25407-4 0 8929
2 22825 098.3663 002.5981 0007586 293.2059 066.8322 14.29229138748969
IO-26
1 22826U 93061D 08037.52321157 .00000003 00000-0 17499-4 0 05952
2 22826 098.3589 003.5749 0008235 290.2560 069.7736 14.29477415749051
PO-28
1 22829U 93061G 08037.50429016 .00000037 00000-0 30344-4 0 08680
2 22829 098.3480 004.6841 0008855 258.6838 101.3359 14.30179746749303
GO-32
1 25397U 98043D 08037.63607748 .00000120 00000-0 71271-4 0 05226
2 25397 098.3826 079.1841 0000368 254.3504 105.7632 14.23138680497509
MO-46
1 26548U 00057D 08037.82669751 .00000021 00000-0 20464-4 0 00184
2 26548 064.5550 176.7293 0014456 342.2690 017.7871 14.83224664398330
NO-44
1 26931U 01043C 08037.89240687 .00000016 00000-0 38499-4 0 08028
2 26931 067.0528 262.8874 0004688 267.4063 092.6469 14.29511536331642
SO-50
1 27607U 02058C 08038.64259390 .00000040 00000-0 28354-4 0 5237
2 27607 064.5590 090.0898 0079561 305.3766 053.9936 14.71324664275765
CO-55
1 27844U 03031E 08037.58452128 .00000044 00000-0 40819-4 0 02318
2 27844 098.7183 047.6650 0010300 132.4404 227.7639 14.20558688238751
CO-57
1 27848U 03031J 08037.91726272 .00000016 00000-0 28030-4 0 01851
2 27848 098.7179 047.1171 0010195 135.3852 224.8153 14.20370912238777
AO-51
1 28375U 04025K 08036.52667764 -.00000001 00000-0 12534-4 0 00246
2 28375 098.0857 068.4666 0083222 194.8409 165.0338 14.40595643189300
CO-56
1 28941U 06005C 08038.70249526 .00033270 26490-5 28338-3 0 8277
2 28941 098.1037 132.3839 0190954 152.9437 208.1991 15.49827310109787
NO-61
1 29664U 06055F 07359.16654419 .14620719 12705-4 12723-3 0 7381
2 29664 051.6179 150.0690 0003189 248.8461 111.8136 16.51627846 58777
CP4
1 31122U 07012F 08037.75382598 .00000550 00000-0 13192-3 0 02569
2 31122 098.0572 108.1355 0085950 017.8975 342.5167 14.55084772042961
CP3
1 31128U 07012M 08037.70867871 -.00000047 00000-0 00000-0 0 02510
2 31128 098.0550 106.6129 0103495 021.8466 338.7079 14.51910717042850
LIBERT
1 31129U 07012N 08038.72443457 .00000338 00000-0 89029-4 0 7344
2 31129 098.0567 107.6171 0102590 018.8114 341.6788 14.52001804 42981
NOAA-10
1 16969U 86073A 08037.64821848 .00000103 00000-0 60438-4 0 09960
2 16969 098.7334 059.8122 0011923 201.9281 158.1393 14.27350098112679
NOAA-11
1 19531U 88089A 08038.26961732 -.00000205 00000-0 -83258-4 0 302
2 19531 098.8003 129.4216 0012304 081.5703 278.6844 14.14863836999390
NOAA-12
1 21263U 91032A 08038.43939721 .00000036 00000-0 33880-4 0 5368
2 21263 098.7645 040.4158 0012997 142.2136 217.9965 14.25515674869769
MET-3/5
1 21655U 91056A 08037.91809870 .00000051 00000-0 10000-3 0 04209
2 21655 082.5544 197.0993 0013100 347.1001 012.9784 13.17014155792308
MET-2/21
1 22782U 93055A 08037.59689522 .00000037 00000-0 20367-4 0 00574
2 22782 082.5442 215.9437 0021331 301.1882 058.7191 13.83625436728933
OKEAN-4
1 23317U 94066A 08038.79958393 .00000127 00000-0 12794-4 0 5008
2 23317 082.5361 076.7342 0021755 192.1637 167.9081 14.82575868718968
NOAA-14
1 23455U 94089A 08037.90867394 -.00000153 00000-0 -57091-4 0 00081
2 23455 098.9621 110.0076 0009905 151.7271 208.4441 14.13732888675802
SICH-1
1 23657U 95046A 08038.80006187 .00000164 00000-0 17845-4 0 2999
2 23657 082.5241 217.6728 0023646 184.8329 175.2646 14.81549574670918
NOAA-15
1 25338U 98030A 08038.44809281 .00000071 00000-0 48851-4 0 3437
2 25338 098.5474 033.6801 0011521 065.7791 294.4610 14.24685416506183
RESURS
1 25394U 98043A 08037.72817675 -.00000033 00000-0 35384-5 0 8509
2 25394 098.4056 087.5582 0000807 195.1975 164.9180 14.24152760497735
FENGYUN1
1 25730U 99025A 08038.91497175 .00000671 00000-0 42112-3 0 3344
2 25730 098.7133 019.1556 0021087 175.8244 184.3105 14.07684822450638
OKEAN-0
1 25860U 99039A 08037.58207862 .00000074 00000-0 18623-4 0 2827
2 25860 097.7421 034.0102 0001386 039.9566 320.1747 14.73500961460010
NOAA-16
1 26536U 00055A 08038.44250907 .00000223 00000-0 14572-3 0 7955
2 26536 099.1452 024.8203 0009944 229.9452 130.0870 14.12469035380311
NOAA-17
1 27453U 02032A 08037.86499517 .00000150 00000-0 83709-4 0 07934
2 27453 098.5525 106.2082 0012707 128.8548 231.3765 14.23947208292111
NOAA-18
1 28654U 05018A 08037.88138072 .00000270 00000-0 17413-3 0 03042
2 28654 098.8550 340.5152 0014012 328.3744 031.6567 14.11136178139959
HUBBLE
1 20580U 90037B 08038.56588070 .00000361 00000-0 15100-4 0 679
2 20580 028.4679 095.1359 0003730 083.7992 276.3023 15.00334450775340
UARS
1 21701U 91063B 08037.95542101 .00006118 00000-0 99964-4 0 03187
2 21701 056.9765 013.4929 0080775 287.7450 071.4749 15.50495868902137
PO-34
1 25520U 98064B 08037.96357392 .00000553 00000-0 17456-4 0 09263
2 25520 028.4609 337.2694 0005236 290.8859 069.1174 15.17128291513213
ISS
1 25544U 98067A 08038.91675674 .00024914 00000-0 14627-3 0 8794
2 25544 051.6408 328.0241 0005540 021.7995 022.6476 15.78101560527974
OO-38
1 26063U 00004C 08037.58871361 -.00000037 00000-0 75955-5 0 01313
2 26063 100.2097 088.3475 0036646 219.9765 139.8720 14.35826536420680
UWE-1
1 28892U 05043C 08037.73831328 .00000111 00000-0 33012-4 0 09697
2 28892 098.1115 294.4147 0018356 098.5096 261.8228 14.59589790121423
CO-58
1 28895U 05043F 08037.64138962 .00000097 00000-0 30025-4 0 09430
2 28895 098.1151 294.6241 0018918 099.2392 261.0938 14.59632126121291
NCUBE2
1 28897U 05043H 08038.71785024 .00000086 00000-0 27522-4 0 4721
2 28897 098.1117 295.6156 0018275 097.5981 262.7294 14.59800017113731
FCAL
1 29667U 06055J 08038.89126955 .00039094 12064-4 75952-4 0 7363
2 29667 051.6332 288.6729 0009253 184.5292 175.5636 16.01006686 65585
FALCON
1 30776U 07006E 08038.90634462 .00000443 00000-0 35424-4 0 2434
2 30776 035.4331 223.5539 0001996 330.0480 030.0121 15.02873237 50534
MAST
1 31126U 07012K 08037.74873558 .00000036 00000-0 18979-4 0 02516
2 31126 098.0558 107.3436 0095309 019.8472 340.6390 14.53397284042929
CAPE1
1 31130U 07012P 08037.77386743 .00000154 00000-0 46518-4 0 02352
2 31130 098.0541 106.6781 0103309 021.7338 338.8196 14.51928558042659
/EX
1
0
SB KEPS @ AMSAT $ORB08038.O
Orbital Elements 08038.OSCAR
HR AMSAT ORBITAL ELEMENTS FOR OSCAR SATELLITES
FROM WA5QGD FORT WORTH,TX February 7, 2008
Send Subscribe/unsubscribe to KEPS at
http://www.amsat.org/mailman/listinfo/keps
BID: ORB08038.O
TO ALL RADIO AMATEURS BT
Satellite: AO-07
Catalog number: 07530
Epoch time: 08038.65043768
Element set: 98
Inclination: 101.4849 deg
RA of node: 074.4364 deg
Eccentricity: 0.0012079
Arg of perigee: 156.5756 deg
Mean anomaly: 203.5864 deg
Mean motion: 12.53573358 rev/day
Decay rate: -2.7e-07 rev/day^2
Epoch rev: 52062
Checksum: 312
Satellite: AO-10
Catalog number: 14129
Epoch time: 08038.61210448
Element set: 466
Inclination: 025.9390 deg
RA of node: 231.6094 deg
Eccentricity: 0.6032615
Arg of perigee: 096.7648 deg
Mean anomaly: 331.0044 deg
Mean motion: 02.05871726 rev/day
Decay rate: -6.4e-07 rev/day^2
Epoch rev: 18541
Checksum: 289
Satellite: UO-11
Catalog number: 14781
Epoch time: 08037.85743948
Element set: 0591
Inclination: 098.1708 deg
RA of node: 069.8220 deg
Eccentricity: 0.0009785
Arg of perigee: 131.7073 deg
Mean anomaly: 228.5002 deg
Mean motion: 14.79615918 rev/day
Decay rate: 2.27e-06 rev/day^2
Epoch rev: 28443
Checksum: 327
Satellite: RS-15
Catalog number: 23439
Epoch time: 08037.92731509
Element set: 0137
Inclination: 064.8209 deg
RA of node: 347.3066 deg
Eccentricity: 0.0151216
Arg of perigee: 147.7584 deg
Mean anomaly: 213.2690 deg
Mean motion: 11.27551600 rev/day
Decay rate: -3.9e-07 rev/day^2
Epoch rev: 54016
Checksum: 293
Satellite: FO-29
Catalog number: 24278
Epoch time: 08037.92977031
Element set: 0709
Inclination: 098.5824 deg
RA of node: 331.4049 deg
Eccentricity: 0.0350428
Arg of perigee: 195.1916 deg
Mean anomaly: 163.8487 deg
Mean motion: 13.52934335 rev/day
Decay rate: -9.4e-07 rev/day^2
Epoch rev: 56664
Checksum: 347
Satellite: SO-33
Catalog number: 25509
Epoch time: 08037.91954510
Element set: 0127
Inclination: 031.4340 deg
RA of node: 338.5655 deg
Eccentricity: 0.0355301
Arg of perigee: 319.4670 deg
Mean anomaly: 038.0047 deg
Mean motion: 14.28192201 rev/day
Decay rate: 7.5e-07 rev/day^2
Epoch rev: 48483
Checksum: 288
Satellite: AO-40
Catalog number: 26609
Epoch time: 08038.23039156
Element set: 4
